Time,TemperatureF,DewpointF,PressureIn,WindDirection,WindDirectionDegrees,WindSpeedMPH,WindSpeedGustMPH,Humidity,HourlyPrecipIn,Conditions,Clouds,dailyrainin,SoftwareType,DateUTC
2013-01-02 00:04:00,42.0,39.3,29.94,NW,317,1.2,1.2,90,0.00,RA,,0.00,WeatherDisplay:10.37,2013-01-02 00:04:00,
2013-01-02 00:09:00,41.7,39.3,29.94,NW,317,1.2,1.2,91,0.00,RA,,0.00,WeatherDisplay:10.37,2013-01-02 00:09:00,
2013-01-02 00:14:00,41.5,39.1,29.94,NW,325,1.2,1.2,91,0.00,CLR,,0.00,WeatherDisplay:10.37,2013-01-02 00:14:00,
2013-01-02 00:19:00,41.2,38.8,29.94,NW,326,1.2,1.2,91,0.00,CLR,,0.00,WeatherDisplay:10.37,2013-01-02 00:19:00,
2013-01-02 00:24:00,41.3,39.2,29.94,North,349,3.5,3.5,92,0.00,CLR,,0.00,WeatherDisplay:10.37,2013-01-02 00:24:00,
2013-01-02 00:29:00,41.1,39.0,29.95,North,354,2.3,2.3,92,0.00,CLR,,0.00,WeatherDisplay:10.37,2013-01-02 00:29:00,
2013-01-02 00:34:00,41.1,39.0,29.95,NNW,345,3.5,3.5,92,0.00,CLR,,0.00,WeatherDisplay:10.37,2013-01-02 00:34:00,
2013-01-02 00:39:00,41.2,39.1,29.95,NNW,337,0.0,0.0,92,0.00,CLR,,0.00,WeatherDisplay:10.37,2013-01-02 00:39:00,
2013-01-02 00:44:00,41.1,39.0,29.95,NNW,330,0.0,0.0,92,0.00,CLR,,0.00,WeatherDisplay:10.37,2013-01-02 00:44:00,
2013-01-02 00:49:00,41.2,39.3,29.95,NW,316,0.0,0.0,93,0.00,CLR,,0.00,WeatherDisplay:10.37,2013-01-02 00:49:00,
2013-01-02 00:54:00,41.2,39.3,29.95,NW,316,0.0,0.0,93,0.00,CLR,,0.00,WeatherDisplay:10.37,2013-01-02 00:54:00,
2013-01-02 00:59:00,41.1,39.2,29.95,NW,316,0.0,0.0,93,0.00,CLR,,0.00,WeatherDisplay:10.37,2013-01-02 00:59:00,
2013-01-02 01:04:00,41.0,39.1,29.95,NW,317,0.0,0.0,93,0.00,CLR,,0.00,WeatherDisplay:10.37,2013-01-02 01:04:00,
2013-01-02 01:09:00,41.2,39.3,29.95,NW,304,0.0,0.0,93,0.00,CLR,,0.00,WeatherDisplay:10.37,2013-01-02 01:09:00,
2013-01-02 01:14:00,41.4,39.5,29.95,WSW,247,3.0,3.0,93,0.00,CLR,,0.00,WeatherDisplay:10.37,2013-01-02 01:14:00,
2013-01-02 01:19:00,42.0,40.4,29.96,WSW,245,4.0,4.0,94,0.00,CLR,,0.00,WeatherDisplay:10.37,2013-01-02 01:19:00,
2013-01-02 01:24:00,42.7,40.8,29.96,WSW,240,3.5,3.5,93,0.00,CLR,,0.00,WeatherDisplay:10.37,2013-01-02 01:24:00,
2013-01-02 01:29:00,43.1,40.9,29.96,WSW,246,3.5,3.5,92,0.00,CLR,,0.00,WeatherDisplay:10.37,2013-01-02 01:29:00,
2013-01-02 01:34:00,43.2,41.0,29.96,WSW,245,1.2,1.2,92,0.00,CLR,,0.00,WeatherDisplay:10.37,2013-01-02 01:34:00,
2013-01-02 01:39:00,42.7,40.3,29.96,WSW,247,1.2,1.2,91,0.00,CLR,,0.00,WeatherDisplay:10.37,2013-01-02 01:39:00,
2013-01-02 01:44:00,42.4,40.2,29.96,WSW,247,0.0,0.0,92,0.00,CLR,,0.00,WeatherDisplay:10.37,2013-01-02 01:44:00,
2013-01-02 01:49:00,42.1,39.9,29.96,NW,323,2.3,2.3,92,0.00,CLR,,0.00,WeatherDisplay:10.37,2013-01-02 01:49:00,
2013-01-02 01:54:00,41.9,39.7,29.96,WNW,293,1.2,1.2,92,0.00,CLR,,0.00,WeatherDisplay:10.37,2013-01-02 01:54:00,
2013-01-02 01:59:00,42.2,40.3,29.96,West,264,3.0,3.0,93,0.00,CLR,,0.00,WeatherDisplay:10.37,2013-01-02 01:59:00,
2013-01-02 02:04:00,42.2,40.0,29.96,West,266,4.0,4.0,92,0.00,CLR,,0.00,WeatherDisplay:10.37,2013-01-02 02:04:00,
2013-01-02 02:09:00,42.7,40.8,29.96,WSW,248,5.8,5.8,93,0.00,CLR,,0.00,WeatherDisplay:10.37,2013-01-02 02:09:00,
2013-01-02 02:14:00,43.0,41.1,29.96,WSW,247,5.8,5.8,93,0.00,CLR,,0.00,WeatherDisplay:10.37,2013-01-02 02:14:00,
2013-01-02 02:19:00,43.2,41.0,29.96,WSW,257,4.0,4.0,92,0.00,CLR,,0.00,WeatherDisplay:10.37,2013-01-02 02:19:00,
2013-01-02 02:24:00,43.3,41.1,29.97,WSW,258,4.6,4.6,92,0.00,CLR,,0.00,WeatherDisplay:10.37,2013-01-02 02:24:00,
2013-01-02 02:30:00,43.5,41.3,29.97,West,269,2.3,2.3,92,0.00,CLR,,0.00,WeatherDisplay:10.37,2013-01-02 02:30:00,
2013-01-02 02:35:00,43.5,41.3,29.97,WSW,258,0.0,0.0,92,0.00,CLR,,0.00,WeatherDisplay:10.37,2013-01-02 02:35:00,
2013-01-02 02:40:00,42.9,40.2,29.97,WNW,303,0.0,0.0,90,0.00,CLR,,0.00,WeatherDisplay:10.37,2013-01-02 02:40:00,
2013-01-02 02:45:00,42.4,40.2,29.97,NW,309,0.0,0.0,92,0.00,CLR,,0.00,WeatherDisplay:10.37,2013-01-02 02:45:00,
2013-01-02 02:50:00,42.3,40.1,29.97,NW,315,0.0,0.0,92,0.00,CLR,,0.00,WeatherDisplay:10.37,2013-01-02 02:50:00,
2013-01-02 02:55:00,42.4,40.2,29.97,NW,316,0.0,0.0,92,0.00,CLR,,0.00,WeatherDisplay:10.37,2013-01-02 02:55:00,
2013-01-02 03:00:00,42.4,40.2,29.97,NW,316,0.0,0.0,92,0.00,CLR,,0.00,WeatherDisplay:10.37,2013-01-02 03:00:00,
2013-01-02 03:05:00,42.5,40.6,29.97,NW,316,0.0,0.0,93,0.00,CLR,,0.00,WeatherDisplay:10.37,2013-01-02 03:05:00,
2013-01-02 03:10:00,42.4,40.2,29.97,NW,316,0.0,0.0,92,0.00,CLR,,0.00,WeatherDisplay:10.37,2013-01-02 03:10:00,
2013-01-02 03:15:00,42.3,40.4,29.97,NW,316,0.0,0.0,93,0.00,CLR,,0.00,WeatherDisplay:10.37,2013-01-02 03:15:00,
2013-01-02 03:20:00,42.2,40.3,29.97,NW,316,0.0,0.0,93,0.00,CLR,,0.00,WeatherDisplay:10.37,2013-01-02 03:20:00,
2013-01-02 03:25:00,42.3,40.4,29.97,NW,316,0.0,0.0,93,0.00,CLR,,0.00,WeatherDisplay:10.37,2013-01-02 03:25:00,
2013-01-02 03:30:00,42.5,40.6,29.97,NW,316,0.0,0.0,93,0.00,CLR,,0.00,WeatherDisplay:10.37,2013-01-02 03:30:00,
2013-01-02 03:35:00,42.8,40.9,29.97,NW,316,0.0,0.0,93,0.00,CLR,,0.00,WeatherDisplay:10.37,2013-01-02 03:35:00,
2013-01-02 03:40:00,42.9,41.0,29.97,NW,316,0.0,0.0,93,0.00,CLR,,0.00,WeatherDisplay:10.37,2013-01-02 03:40:00,
2013-01-02 03:45:00,43.0,41.1,29.97,NW,316,0.0,0.0,93,0.00,CLR,,0.00,WeatherDisplay:10.37,2013-01-02 03:45:00,
2013-01-02 03:50:00,43.2,41.3,29.97,NW,318,0.0,0.0,93,0.00,CLR,,0.00,WeatherDisplay:10.37,2013-01-02 03:50:00,
2013-01-02 03:55:00,43.3,41.4,29.97,NW,316,0.0,0.0,93,0.00,CLR,,0.00,WeatherDisplay:10.37,2013-01-02 03:55:00,
2013-01-02 04:00:00,43.1,41.2,29.97,NW,316,0.0,0.0,93,0.00,CLR,,0.00,WeatherDisplay:10.37,2013-01-02 04:00:00,
2013-01-02 04:05:00,42.9,41.0,29.97,NW,317,0.0,0.0,93,0.00,CLR,,0.00,WeatherDisplay:10.37,2013-01-02 04:05:00,
2013-01-02 04:10:00,42.9,41.0,29.97,NNW,337,0.0,0.0,93,0.00,CLR,,0.00,WeatherDisplay:10.37,2013-01-02 04:10:00,
2013-01-02 04:15:00,43.1,41.5,29.97,NNW,334,0.0,0.0,94,0.00,CLR,,0.00,WeatherDisplay:10.37,2013-01-02 04:15:00,
2013-01-02 04:20:00,43.2,41.6,29.98,NNW,334,0.0,0.0,94,0.01,RA,,0.01,WeatherDisplay:10.37,2013-01-02 04:20:00,
2013-01-02 04:25:00,43.3,41.7,29.98,NNW,333,1.2,0.0,94,0.01,RA,,0.01,WeatherDisplay:10.37,2013-01-02 04:25:00,
2013-01-02 04:30:00,43.3,41.7,29.98,NNW,334,0.0,0.0,94,0.01,,,0.01,WeatherDisplay:10.37,2013-01-02 04:30:00,
2013-01-02 04:35:00,43.2,41.6,29.97,WNW,300,1.2,1.2,94,0.02,RA,,0.02,WeatherDisplay:10.37,2013-01-02 04:35:00,
2013-01-02 04:40:00,43.0,41.4,29.97,WNW,300,1.2,1.2,94,0.02,RA,,0.02,WeatherDisplay:10.37,2013-01-02 04:40:00,
2013-01-02 04:45:00,43.0,41.4,29.97,ENE,57,2.3,2.3,94,0.02,RA,,0.02,WeatherDisplay:10.37,2013-01-02 04:45:00,
2013-01-02 04:50:00,43.1,41.8,29.96,ENE,57,1.2,1.2,95,0.03,RA,,0.03,WeatherDisplay:10.37,2013-01-02 04:50:00,
2013-01-02 04:55:00,43.5,42.2,29.96,SSW,195,3.5,3.5,95,0.03,RA,,0.03,WeatherDisplay:10.37,2013-01-02 04:55:00,
2013-01-02 05:00:00,43.8,42.7,29.95,ENE,63,4.0,4.0,96,0.04,RA,,0.04,WeatherDisplay:10.37,2013-01-02 05:00:00,
2013-01-02 05:03:00,43.4,42.1,29.95,NNE,33,3.5,3.5,95,0.04,RA,,0.04,WeatherDisplay:10.37,2013-01-02 05:03:00,
2013-01-02 05:08:00,43.2,41.9,29.94,NE,50,3.5,3.5,95,0.05,RA,,0.05,WeatherDisplay:10.37,2013-01-02 05:08:00,
2013-01-02 05:13:00,43.2,41.9,29.94,NE,39,3.5,3.5,95,0.05,RA,,0.05,WeatherDisplay:10.37,2013-01-02 05:13:00,
2013-01-02 05:18:00,43.2,41.9,29.94,North,3,3.0,3.0,95,0.06,RA,,0.06,WeatherDisplay:10.37,2013-01-02 05:18:00,
2013-01-02 05:23:00,43.4,42.1,29.94,North,349,2.3,2.3,95,0.05,RA,,0.06,WeatherDisplay:10.37,2013-01-02 05:23:00,
2013-01-02 05:28:00,43.5,42.2,29.94,NE,44,3.5,3.5,95,0.05,CLR,,0.06,WeatherDisplay:10.37,2013-01-02 05:28:00,
2013-01-02 05:33:00,43.7,42.4,29.94,ESE,106,3.5,3.5,95,0.06,RA,,0.06,WeatherDisplay:10.37,2013-01-02 05:33:00,
2013-01-02 05:38:00,43.9,42.6,29.94,South,180,8.1,8.1,95,0.05,RA,,0.06,WeatherDisplay:10.37,2013-01-02 05:38:00,
2013-01-02 05:43:00,44.4,43.1,29.94,WSW,238,13.8,13.8,95,0.04,,,0.06,WeatherDisplay:10.37,2013-01-02 05:43:00,
2013-01-02 05:48:00,44.5,42.9,29.95,SSW,208,11.5,11.5,94,0.03,CLR,,0.06,WeatherDisplay:10.37,2013-01-02 05:48:00,
2013-01-02 05:53:00,44.5,42.6,29.95,SW,221,11.5,11.5,93,0.03,CLR,,0.06,WeatherDisplay:10.37,2013-01-02 05:53:00,
2013-01-02 05:58:00,44.5,42.6,29.95,SW,221,9.2,9.2,93,0.03,RA,,0.07,WeatherDisplay:10.37,2013-01-02 05:58:00,
2013-01-02 06:03:00,44.5,42.3,29.96,SW,229,6.9,6.9,92,0.03,RA,,0.07,WeatherDisplay:10.37,2013-01-02 06:03:00,
2013-01-02 06:08:00,44.5,42.3,29.95,SSW,201,6.9,6.9,92,0.03,RA,,0.08,WeatherDisplay:10.37,2013-01-02 06:08:00,
2013-01-02 06:13:00,44.4,42.2,29.95,South,188,8.0,8.0,92,0.03,RA,,0.08,WeatherDisplay:10.37,2013-01-02 06:13:00,
2013-01-02 06:18:00,44.3,42.1,29.95,SSW,202,7.0,7.0,92,0.02,,,0.08,WeatherDisplay:10.37,2013-01-02 06:18:00,
2013-01-02 06:23:00,44.3,42.1,29.95,ESE,123,3.5,3.5,92,0.03,RA,,0.09,WeatherDisplay:10.37,2013-01-02 06:23:00,
2013-01-02 06:28:00,44.2,42.0,29.95,South,184,2.3,2.3,92,0.03,RA,,0.09,WeatherDisplay:10.37,2013-01-02 06:28:00,
2013-01-02 06:33:00,44.1,41.9,29.95,WSW,245,3.5,3.5,92,0.02,CLR,,0.09,WeatherDisplay:10.37,2013-01-02 06:33:00,
2013-01-02 06:38:00,44.0,41.8,29.95,SSE,162,3.5,3.5,92,0.02,CLR,,0.09,WeatherDisplay:10.37,2013-01-02 06:38:00,
2013-01-02 06:43:00,44.0,42.1,29.95,SSW,207,1.2,1.2,93,0.02,CLR,,0.09,WeatherDisplay:10.37,2013-01-02 06:43:00,
2013-01-02 06:48:00,44.0,42.1,29.94,SSW,205,3.5,3.5,93,0.03,RA,,0.09,WeatherDisplay:10.37,2013-01-02 06:48:00,
2013-01-02 06:53:00,43.9,42.0,29.94,SSW,207,2.3,2.3,93,0.03,RA,,0.09,WeatherDisplay:10.37,2013-01-02 06:53:00,
2013-01-02 06:58:00,43.9,42.3,29.94,SE,137,3.5,3.5,94,0.02,,,0.09,WeatherDisplay:10.37,2013-01-02 06:58:00,
2013-01-02 07:03:00,43.9,42.3,29.94,SSW,207,3.5,3.5,94,0.02,CLR,,0.09,WeatherDisplay:10.37,2013-01-02 07:03:00,
2013-01-02 07:08:00,43.9,42.3,29.94,SSE,162,2.3,2.3,94,0.02,RA,,0.10,WeatherDisplay:10.37,2013-01-02 07:08:00,
2013-01-02 07:13:00,43.8,42.2,29.94,SSE,162,1.0,1.0,94,0.03,RA,,0.11,WeatherDisplay:10.37,2013-01-02 07:13:00,
2013-01-02 07:18:00,43.7,42.1,29.94,North,3,3.5,3.5,94,0.04,RA,,0.12,WeatherDisplay:10.37,2013-01-02 07:18:00,
2013-01-02 07:23:00,43.7,42.1,29.94,North,8,1.2,0.0,94,0.03,RA,,0.12,WeatherDisplay:10.37,2013-01-02 07:23:00,
2013-01-02 07:28:00,43.7,42.1,29.95,North,352,2.3,0.0,94,0.04,RA,,0.13,WeatherDisplay:10.37,2013-01-02 07:28:00,
2013-01-02 07:33:00,43.7,42.4,29.94,NW,323,3.5,3.5,95,0.05,RA,,0.13,WeatherDisplay:10.37,2013-01-02 07:33:00,
2013-01-02 07:38:00,43.8,42.5,29.94,NE,54,1.2,1.2,95,0.06,RA,,0.14,WeatherDisplay:10.37,2013-01-02 07:38:00,
2013-01-02 07:43:00,43.8,42.5,29.95,NNW,335,2.3,2.3,95,0.06,RA,,0.14,WeatherDisplay:10.37,2013-01-02 07:43:00,
2013-01-02 07:48:00,43.9,42.6,29.95,NNW,335,0.0,0.0,95,0.06,RA,,0.15,WeatherDisplay:10.37,2013-01-02 07:48:00,
2013-01-02 07:53:00,44.0,42.7,29.95,NNW,330,1.2,1.2,95,0.06,RA,,0.15,WeatherDisplay:10.37,2013-01-02 07:53:00,
2013-01-02 07:58:00,44.0,42.7,29.95,NNW,330,0.0,0.0,95,0.06,,,0.16,WeatherDisplay:10.37,2013-01-02 07:58:00,
2013-01-02 08:03:00,44.0,42.7,29.95,NNW,330,0.0,0.0,95,0.07,RA,,0.17,WeatherDisplay:10.37,2013-01-02 08:03:00,
2013-01-02 08:08:00,44.0,42.7,29.95,NNW,330,0.0,0.0,95,0.07,RA,,0.17,WeatherDisplay:10.37,2013-01-02 08:08:00,
2013-01-02 08:13:00,44.1,43.0,29.95,NNW,330,0.0,0.0,96,0.06,RA,,0.18,WeatherDisplay:10.37,2013-01-02 08:13:00,
2013-01-02 08:18:00,44.1,43.0,29.95,North,1,2.0,2.0,96,0.06,RA,,0.18,WeatherDisplay:10.37,2013-01-02 08:18:00,
2013-01-02 08:23:00,44.1,43.0,29.95,North,11,2.3,2.3,96,0.06,RA,,0.18,WeatherDisplay:10.37,2013-01-02 08:23:00,
2013-01-02 08:28:00,44.2,43.1,29.95,North,10,0.0,0.1,96,0.06,CLR,,0.18,WeatherDisplay:10.37,2013-01-02 08:28:00,
2013-01-02 08:34:00,44.3,43.2,29.95,North,9,1.2,1.2,96,0.06,RA,,0.19,WeatherDisplay:10.37,2013-01-02 08:34:00,
2013-01-02 08:39:00,44.4,43.3,29.95,North,9,1.2,1.2,96,0.05,RA,,0.19,WeatherDisplay:10.37,2013-01-02 08:39:00,
2013-01-02 08:44:00,44.4,43.3,29.95,North,10,1.2,1.2,96,0.05,,,0.20,WeatherDisplay:10.37,2013-01-02 08:44:00,
2013-01-02 08:49:00,44.4,43.3,29.95,North,9,0.0,0.0,96,0.05,RA,,0.20,WeatherDisplay:10.37,2013-01-02 08:49:00,
2013-01-02 08:54:00,44.4,43.3,29.95,North,9,1.2,1.2,96,0.06,RA,,0.20,WeatherDisplay:10.37,2013-01-02 08:54:00,
2013-01-02 08:59:00,44.5,43.4,29.95,North,9,1.2,1.2,96,0.06,RA,,0.21,WeatherDisplay:10.37,2013-01-02 08:59:00,
2013-01-02 09:04:00,44.5,43.4,29.95,North,356,1.2,1.2,96,0.06,RA,,0.22,WeatherDisplay:10.37,2013-01-02 09:04:00,
2013-01-02 09:09:00,44.5,43.4,29.95,North,355,1.2,1.2,96,0.05,RA,,0.22,WeatherDisplay:10.37,2013-01-02 09:09:00,
2013-01-02 09:14:00,44.6,43.5,29.95,North,349,1.0,1.0,96,0.05,RA,,0.23,WeatherDisplay:10.37,2013-01-02 09:14:00,
2013-01-02 09:19:00,44.7,43.6,29.95,West,271,1.2,1.2,96,0.05,RA,,0.23,WeatherDisplay:10.37,2013-01-02 09:19:00,
2013-01-02 09:24:00,44.7,43.6,29.95,WNW,287,2.3,2.3,96,0.05,CLR,,0.23,WeatherDisplay:10.37,2013-01-02 09:24:00,
2013-01-02 09:29:00,44.9,43.8,29.95,WNW,286,1.2,1.2,96,0.06,RA,,0.24,WeatherDisplay:10.37,2013-01-02 09:29:00,
2013-01-02 09:34:00,45.0,43.9,29.95,WNW,286,0.0,0.0,96,0.05,RA,,0.24,WeatherDisplay:10.37,2013-01-02 09:34:00,
2013-01-02 09:39:00,44.9,43.8,29.95,WNW,286,1.2,1.2,96,0.05,,,0.24,WeatherDisplay:10.37,2013-01-02 09:39:00,
2013-01-02 09:44:00,44.9,43.8,29.94,WNW,287,0.0,0.0,96,0.05,CLR,,0.24,WeatherDisplay:10.37,2013-01-02 09:44:00,
2013-01-02 09:49:00,44.8,43.7,29.95,West,264,0.0,0.0,96,0.05,RA,,0.24,WeatherDisplay:10.37,2013-01-02 09:49:00,
2013-01-02 09:55:00,44.9,43.8,29.95,West,264,1.2,1.2,96,0.04,RA,,0.24,WeatherDisplay:10.37,2013-01-02 09:55:00,
2013-01-02 10:00:00,44.9,43.8,29.94,West,259,1.2,1.2,96,0.03,CLR,,0.24,WeatherDisplay:10.37,2013-01-02 10:00:00,
2013-01-02 10:05:00,45.1,44.0,29.95,WSW,239,4.6,4.6,96,0.02,CLR,,0.24,WeatherDisplay:10.37,2013-01-02 10:05:00,
2013-01-02 10:10:00,45.7,44.9,29.95,SW,215,9.2,9.2,97,0.02,CLR,,0.24,WeatherDisplay:10.37,2013-01-02 10:10:00,
2013-01-02 10:15:00,46.1,45.3,29.95,SSW,211,6.0,6.0,97,0.02,CLR,,0.24,WeatherDisplay:10.37,2013-01-02 10:15:00,
2013-01-02 10:20:00,46.3,45.5,29.96,SW,217,10.4,10.4,97,0.02,RA,,0.25,WeatherDisplay:10.37,2013-01-02 10:20:00,
2013-01-02 10:25:00,46.5,45.7,29.95,SW,235,11.5,11.5,97,0.02,RA,,0.25,WeatherDisplay:10.37,2013-01-02 10:25:00,
2013-01-02 10:30:00,46.7,45.9,29.95,SW,221,6.0,6.0,97,0.02,CLR,,0.25,WeatherDisplay:10.37,2013-01-02 10:30:00,
2013-01-02 10:35:00,46.9,46.1,29.95,WSW,245,9.2,9.2,97,0.02,CLR,,0.25,WeatherDisplay:10.37,2013-01-02 10:35:00,
2013-01-02 10:40:00,47.1,46.3,29.95,WSW,240,11.5,11.5,97,0.02,RA,,0.26,WeatherDisplay:10.37,2013-01-02 10:40:00,
2013-01-02 10:45:00,47.1,46.3,29.95,WSW,240,8.1,8.1,97,0.02,RA,,0.26,WeatherDisplay:10.37,2013-01-02 10:45:00,
2013-01-02 10:50:00,47.2,46.4,29.95,West,259,10.4,10.4,97,0.02,CLR,,0.26,WeatherDisplay:10.37,2013-01-02 10:50:00,
2013-01-02 10:55:00,47.4,46.6,29.95,WSW,247,11.5,11.5,97,0.02,CLR,,0.26,WeatherDisplay:10.37,2013-01-02 10:55:00,
2013-01-02 11:00:00,47.5,46.7,29.95,WSW,239,15.0,15.0,97,0.02,CLR,,0.26,WeatherDisplay:10.37,2013-01-02 11:00:00,
2013-01-02 11:05:00,47.6,46.8,29.95,SW,232,11.5,11.5,97,0.02,CLR,,0.26,WeatherDisplay:10.37,2013-01-02 11:05:00,
2013-01-02 11:10:00,47.7,46.9,29.95,WSW,247,10.4,10.4,97,0.02,CLR,,0.26,WeatherDisplay:10.37,2013-01-02 11:10:00,
2013-01-02 11:15:00,47.7,46.9,29.94,WSW,245,9.2,9.2,97,0.02,CLR,,0.26,WeatherDisplay:10.37,2013-01-02 11:15:00,
2013-01-02 11:20:00,47.9,47.1,29.95,SSW,212,11.5,11.5,97,0.01,CLR,,0.26,WeatherDisplay:10.37,2013-01-02 11:20:00,
2013-01-02 11:25:00,48.0,47.2,29.95,WSW,243,13.8,13.8,97,0.01,CLR,,0.26,WeatherDisplay:10.37,2013-01-02 11:25:00,
2013-01-02 11:30:00,48.3,47.5,29.95,WSW,242,19.0,19.0,97,0.01,CLR,,0.26,WeatherDisplay:10.37,2013-01-02 11:30:00,
2013-01-02 11:35:00,48.3,47.5,29.95,WSW,245,16.1,16.1,97,0.01,CLR,,0.26,WeatherDisplay:10.37,2013-01-02 11:35:00,
2013-01-02 11:40:00,48.5,47.7,29.95,SW,233,16.1,16.1,97,0.00,CLR,,0.26,WeatherDisplay:10.37,2013-01-02 11:40:00,
2013-01-02 11:45:00,48.7,47.9,29.95,SW,230,13.8,13.8,97,0.00,CLR,,0.26,WeatherDisplay:10.37,2013-01-02 11:45:00,
2013-01-02 11:50:00,48.9,48.1,29.95,WSW,243,16.1,16.1,97,0.00,CLR,,0.26,WeatherDisplay:10.37,2013-01-02 11:50:00,
2013-01-02 11:55:00,49.1,48.3,29.94,WSW,247,16.1,16.1,97,0.00,CLR,,0.26,WeatherDisplay:10.37,2013-01-02 11:55:00,
2013-01-02 12:00:00,49.2,48.1,29.94,SW,232,14.0,14.0,96,0.00,CLR,,0.26,WeatherDisplay:10.37,2013-01-02 12:00:00,
2013-01-02 12:05:00,49.2,48.1,29.94,WSW,244,12.7,12.7,96,0.00,CLR,,0.26,WeatherDisplay:10.37,2013-01-02 12:05:00,
2013-01-02 12:10:00,49.3,48.2,29.94,SW,234,12.0,12.0,96,0.00,CLR,,0.26,WeatherDisplay:10.37,2013-01-02 12:10:00,
2013-01-02 12:15:00,49.5,48.4,29.94,SW,235,13.8,13.8,96,0.00,CLR,,0.26,WeatherDisplay:10.37,2013-01-02 12:15:00,
2013-01-02 12:20:00,49.7,48.6,29.95,SW,221,15.0,15.0,96,0.00,CLR,,0.26,WeatherDisplay:10.37,2013-01-02 12:20:00,
2013-01-02 12:25:00,49.8,48.7,29.95,WSW,238,16.1,16.1,96,0.00,CLR,,0.26,WeatherDisplay:10.37,2013-01-02 12:25:00,
2013-01-02 12:30:00,49.7,48.6,29.95,SW,235,12.7,12.7,96,0.00,CLR,,0.26,WeatherDisplay:10.37,2013-01-02 12:30:00,
2013-01-02 12:35:00,49.7,48.6,29.94,WSW,250,10.4,10.4,96,0.00,CLR,,0.26,WeatherDisplay:10.37,2013-01-02 12:35:00,
2013-01-02 12:40:00,49.8,48.7,29.95,West,259,12.0,12.0,96,0.00,CLR,,0.26,WeatherDisplay:10.37,2013-01-02 12:40:00,
2013-01-02 12:45:00,49.8,48.7,29.95,West,278,8.1,8.1,96,0.00,CLR,,0.26,WeatherDisplay:10.37,2013-01-02 12:45:00,
2013-01-02 12:50:00,49.8,48.7,29.95,West,261,10.4,10.4,96,0.00,CLR,,0.26,WeatherDisplay:10.37,2013-01-02 12:50:00,
2013-01-02 12:55:00,49.8,48.7,29.95,WSW,250,10.4,10.4,96,0.00,CLR,,0.26,WeatherDisplay:10.37,2013-01-02 12:55:00,
2013-01-02 13:00:00,49.8,48.7,29.95,West,264,10.4,10.4,96,0.00,CLR,,0.26,WeatherDisplay:10.37,2013-01-02 13:00:00,
2013-01-02 13:05:00,49.9,48.8,29.95,West,273,10.4,10.4,96,0.00,CLR,,0.26,WeatherDisplay:10.37,2013-01-02 13:05:00,
2013-01-02 13:10:00,50.0,48.9,29.95,West,276,9.2,9.2,96,0.00,CLR,,0.26,WeatherDisplay:10.37,2013-01-02 13:10:00,
2013-01-02 13:15:00,50.3,49.2,29.95,West,265,9.2,9.2,96,0.00,CLR,,0.26,WeatherDisplay:10.37,2013-01-02 13:15:00,
2013-01-02 13:20:00,50.5,49.4,29.95,WSW,254,11.5,11.5,96,0.00,CLR,,0.26,WeatherDisplay:10.37,2013-01-02 13:20:00,
2013-01-02 13:25:00,50.6,49.5,29.95,West,280,9.2,9.2,96,0.00,CLR,,0.26,WeatherDisplay:10.37,2013-01-02 13:25:00,
2013-01-02 13:30:00,50.6,49.5,29.95,West,261,11.5,11.5,96,0.00,CLR,,0.26,WeatherDisplay:10.37,2013-01-02 13:30:00,
2013-01-02 13:35:00,50.8,49.7,29.95,WSW,257,13.8,13.8,96,0.00,CLR,,0.26,WeatherDisplay:10.37,2013-01-02 13:35:00,
2013-01-02 13:40:00,51.0,49.9,29.95,West,261,12.7,12.7,96,0.00,CLR,,0.26,WeatherDisplay:10.37,2013-01-02 13:40:00,
2013-01-02 13:44:00,51.1,50.0,29.95,West,273,15.0,15.0,96,0.00,CLR,,0.26,WeatherDisplay:10.37,2013-01-02 13:44:00,
2013-01-02 13:45:00,51.1,50.0,29.95,West,273,15.0,15.0,96,0.00,CLR,,0.26,WeatherDisplay:10.37,2013-01-02 13:45:00,
2013-01-02 13:50:00,51.1,50.0,29.95,West,273,15.0,15.0,96,0.00,CLR,,0.26,WeatherDisplay:10.37,2013-01-02 13:50:00,
2013-01-02 14:30:00,51.1,50.0,29.95,West,273,15.0,15.0,96,0.00,CLR,,0.26,WeatherDisplay:10.37,2013-01-02 14:30:00,
2013-01-02 14:41:00,51.1,50.0,29.95,West,273,15.0,15.0,96,0.00,CLR,,0.26,WeatherDisplay:10.37,2013-01-02 14:41:00,
2013-01-02 14:46:00,51.1,50.0,29.95,West,273,15.0,15.0,96,0.00,CLR,,0.26,WeatherDisplay:10.37,2013-01-02 14:46:00,
2013-01-02 14:51:00,51.1,50.0,29.95,West,273,15.0,15.0,96,0.00,CLR,,0.26,WeatherDisplay:10.37,2013-01-02 14:51:00,
2013-01-02 15:29:00,51.1,50.0,29.95,West,273,15.0,15.0,96,0.00,CLR,,0.26,WeatherDisplay:10.37,2013-01-02 15:29:00,
2013-01-02 15:40:00,51.1,50.0,29.95,West,273,15.0,15.0,96,0.00,CLR,,0.26,WeatherDisplay:10.37,2013-01-02 15:40:00,
2013-01-02 15:49:00,51.1,50.0,29.95,West,273,15.0,15.0,96,0.00,CLR,,0.26,WeatherDisplay:10.37,2013-01-02 15:49:00,
2013-01-02 16:08:00,51.1,50.0,29.95,West,273,15.0,15.0,96,0.00,CLR,,0.26,WeatherDisplay:10.37,2013-01-02 16:08:00,
2013-01-02 16:20:00,51.1,50.0,29.95,West,273,15.0,15.0,96,0.00,CLR,,0.26,WeatherDisplay:10.37,2013-01-02 16:20:00,
2013-01-02 16:32:00,51.1,50.0,29.95,West,273,15.0,15.0,96,0.00,CLR,,0.26,WeatherDisplay:10.37,2013-01-02 16:32:00,
2013-01-02 16:38:00,51.1,50.0,29.95,West,273,15.0,15.0,96,0.00,CLR,,0.26,WeatherDisplay:10.37,2013-01-02 16:38:00,
2013-01-02 16:56:00,51.1,50.0,29.95,West,273,15.0,15.0,96,0.00,CLR,,0.26,WeatherDisplay:10.37,2013-01-02 16:56:00,
2013-01-02 17:11:00,51.1,50.0,29.95,West,273,15.0,15.0,96,0.00,CLR,,0.26,WeatherDisplay:10.37,2013-01-02 17:11:00,
2013-01-02 17:19:00,51.1,50.0,29.95,West,273,15.0,15.0,96,0.00,CLR,,0.26,WeatherDisplay:10.37,2013-01-02 17:19:00,
2013-01-02 18:44:00,51.1,50.0,29.95,West,273,15.0,15.0,96,0.00,CLR,,0.26,WeatherDisplay:10.37,2013-01-02 18:44:00,
2013-01-02 18:49:00,51.1,50.0,29.95,West,273,15.0,15.0,96,0.00,CLR,,0.26,WeatherDisplay:10.37,2013-01-02 18:49:00,
2013-01-02 19:47:00,51.1,50.0,29.95,West,273,15.0,15.0,96,0.00,CLR,,0.26,WeatherDisplay:10.37,2013-01-02 19:47:00,
2013-01-02 19:56:00,51.1,50.0,29.95,West,273,15.0,15.0,96,0.00,CLR,,0.26,WeatherDisplay:10.37,2013-01-02 19:56:00,
2013-01-02 20:35:00,51.1,50.0,29.95,West,273,15.0,15.0,96,0.00,CLR,,0.26,WeatherDisplay:10.37,2013-01-02 20:35:00,
2013-01-02 21:36:00,51.1,50.0,29.95,West,273,15.0,15.0,96,0.00,CLR,,0.26,WeatherDisplay:10.37,2013-01-02 21:36:00,
2013-01-02 21:52:00,51.1,50.0,29.95,West,273,15.0,15.0,96,0.00,CLR,,0.26,WeatherDisplay:10.37,2013-01-02 21:52:00,
2013-01-02 22:32:00,51.1,50.0,29.95,West,273,15.0,15.0,96,0.00,CLR,,0.26,WeatherDisplay:10.37,2013-01-02 22:32:00,
2013-01-02 22:48:00,51.1,50.0,29.95,West,273,15.0,15.0,96,0.00,CLR,,0.26,WeatherDisplay:10.37,2013-01-02 22:48:00,
2013-01-02 23:26:00,51.1,50.0,29.95,West,273,15.0,15.0,96,0.00,CLR,,0.26,WeatherDisplay:10.37,2013-01-02 23:26:00,